XIWANG-5 02

Last updated on Fri Dec 19 2025 00:02:10 GMT+0000 (Coordinated Universal Time)

1 67069U 25296A 25352.62808701 .00010064 00000+0 51089-3 0 9997 2 67069 41.3526 67.9830 0014516 66.6881 293.5466 15.16786899 854
UTC large
Height (km)
Speed (km/s)
/
Latitude / Longitude
Inclination (degrees)
Orbital Period (minutes)
Azimuth
Elevation
Range (km)
Doppler Factor

Next 0 passes for location: London (51.5072 / 0.1276)

Sorry there are no passes over London.